Regional Weather Roundup
Issued by NWS Kansas City/Pleasant Hill, MO

Home | Current Version | Previous Version | Text Only | Print | Product List | Glossary On
Versions: 1 2 3 4 5 6 7 8 9 10 11 12 13 14 15 16 17 18 19 20 21 22 23 24 25 26 27 28
000
ASUS43 KEAX 220610
RWREAX

WEATHER ROUNDUP FOR EASTERN KANSAS AND NORTHWEST MISSOURI
NATIONAL WEATHER SERVICE KANSAS CITY/PLEASANT HILL MO
100 AM CDT WED MAR 22 2017

KSZ040-057-103>105-MOZ028-029-037-043-220700-
...KANSAS CITY METROPOLITAN AREA...

CITY           SKY/WX    TMP DP  RH WIND       PRES   REMARKS
K.C. INTL      CLOUDY    43  30  60 NE13      30.34S
6HR MIN TEMP:  43; 6HR MAX TEMP:  55;

K.C. DOWNTOWN  CLOUDY    46  26  45 NE9       30.34S
6HR MIN TEMP:  45; 6HR MAX TEMP:  58;

LEES SUMMIT    CLOUDY    45  29  53 NE14      30.33F
6HR MIN TEMP:  45; 6HR MAX TEMP:  58;

OLATHE - IXD   MOCLDY    45  26  47 NE15      30.32S
6HR MIN TEMP:  45; 6HR MAX TEMP:  58;

OLATHE - OJC   PTCLDY    44  27  51 NE13      30.32S
6HR MIN TEMP:  44; 6HR MAX TEMP:  57;

LAWRENCE       PTCLDY    44  28  53 NE10      30.33F

$$

MOZ001>008-011>017-020>025-030>033-038>040-044>046-053-054-220700-
...NORTHERN AND CENTRAL MISSOURI...

CITY           SKY/WX    TMP DP  RH WIND       PRES   REMARKS
ST. JOSEPH     PTCLDY    42  25  50 NE14      30.37S WCI  35
6HR MIN TEMP:  41; 6HR MAX TEMP:  53;

MOSBY            N/A     43  27  52 NE8       30.35S
WARRENSBURG    CLOUDY    43  28  56 NE10      30.33S
WHITEMAN AFB   PTCLDY    44  27  50 NE12      30.31S
6HR MIN TEMP:  44; 6HR MAX TEMP:  58;

CLINTON        CLOUDY    46  27  46 NE16G22   30.31R
SEDALIA        CLOUDY    46  27  47 NE9       30.34R
6HR MIN TEMP:  46; 6HR MAX TEMP:  59;

WARSAW         NOT AVBL
CHILLICOTHE      N/A     42  23  46 NE12G18   30.39S
6HR MIN TEMP:  40; 6HR MAX TEMP:  51;

KIRKSVILLE     PTCLDY    39  22  50 N15       30.39R WCI  31
6HR MIN TEMP:  37; 6HR MAX TEMP:  47;


$$

MOZ041-047>049-056>058-063>065-088>090-097-220700-
...EASTERN AND SOUTHERN MISSOURI...

CITY           SKY/WX    TMP DP  RH WIND       PRES   REMARKS
ST. LOUIS INTL MOCLDY    45  31  58 N9        30.32S
6HR MIN TEMP:  45; 6HR MAX TEMP:  59;

SPIRIT OF STL  CLOUDY    46  31  55 N7        30.32S
COLUMBIA       CLOUDY    44  30  57 NE14      30.33R
JEFFERSON CITY CLOUDY    48  29  47 NE8G20    30.33R
ROLLA          CLOUDY    45  31  58 NE14      30.27R
OSAGE BEACH    CLOUDY   N/A N/A N/A NE15G21   30.31R
SPRINGFIELD    CLOUDY    52  42  69 E7        30.24R
BRANSON        LGT RAIN  46  45  93 E8        30.25S
JOPLIN         CLOUDY    54  41  61 NE10      30.23R
WEST PLAINS    CLOUDY    48  41  76 E7        30.24S

$$

IAZ060-094-KSZ022-034>040-054-083-096-NEZ052-066-093-220700-
...KANSAS...SOUTHEAST NEBRASKA AND IOWA...

CITY           SKY/WX    TMP DP  RH WIND       PRES   REMARKS
TOPEKA         MOCLDY    45  29  53 NE10      30.32F
6HR MIN TEMP:  45; 6HR MAX TEMP:  58;

MANHATTAN      MOCLDY    44  26  49 NE20      30.32F
EMPORIA        CLOUDY    48  36  63 NE20G26   30.26F
CHANUTE        CLOUDY    54  29  38 NE16      30.26R
WICHITA        CLOUDY    53  27  36 NE15      30.24S
OMAHA          CLOUDY    38  24  57 NE10      30.43S WCI  31
LINCOLN        PTCLDY    35  26  69 NE8       30.41F WCI  29
FALLS CITY     CLOUDY    40  23  50 NE13      30.38S WCI  32
LAMONI         PTCLDY    36  23  59 NE13      30.41R WCI  27
DES MOINES     CLOUDY    34  19  54 NE13      30.45S WCI  25

$$





USA.gov is the U.S. government's official web portal to all federal, state and local government web resources and services.